Regional Weather Roundup
Issued by NWS Charleston, SC

Home | Current Version | Previous Version | Text Only | Print | Product List | Glossary On
Versions: 1 2 3 4 5 6 7 8 9 10 11 12 13 14 15 16 17 18 19 20 21 22 23 24 25 26 27 28 29 30 31 32 33 34 35 36 37 38 39 40 41 42 43 44 45 46 47 48 49 50
000
ASUS42 KCHS 240527
RWRCHS

REGIONAL WEATHER ROUNDUP
NATIONAL WEATHER SERVICE CHARLESTON SC
1200 AM EST FRI NOV 24 2017

NOTE: "FAIR" INDICATES FEW OR NO CLOUDS BELOW 12,000 FEET WITH NO
SIGNIFICANT WEATHER AND/OR OBSTRUCTIONS TO VISIBILITY.

NOT ALL STATIONS ARE QUALITY CONTROLLED. USE DATA WITH CAUTION...
ESPECIALLY DEWPOINT OBSERVATIONS.

SCZ027-030-031-034>040-042>050-240600-
...SOUTHEAST SOUTH CAROLINA...

CITY           SKY/WX    TMP DP  RH WIND       PRES   REMARKS
N CHARLESTON   MOCLDY    44  43  96 N8        30.01S
WATERFRONT PRK   N/A     48  46  93 N13       29.85F
JOHNS ISLAND   FAIR      48  45  87 N10       29.98F
PINOPOLIS        N/A     46  43  87 NE7       29.95S
MONCKS CORNER  FAIR      45  41  87 N5        30.02S
SUMMERVILLE    CLOUDY    43  41  93 N5        30.03F
BEAUFORT MCAS  NOT AVBL
BEAUFORT ARPT  CLOUDY    46  43  87 N10       29.98F
HILTON HEAD IS CLOUDY    50  46  87 N9        29.99S
WALTERBORO     MOCLDY    43  39  87 N3        30.02F
ALLENDALE      FAIR      43  37  81 N7        30.02S

...SOUTHERN MIDLANDS AND PEE DEE...

CITY           SKY/WX    TMP DP  RH WIND       PRES   REMARKS
GEORGETOWN     LGT RAIN  45  43  93 N6        30.01F
KINGSTREE      FAIR      41  37  87 N3        30.04F
ORANGEBURG     PTCLDY    39  35  86 CALM      30.05S
BARNWELL         N/A     41  37  87 NE6       30.03F
AIKEN          FAIR      34  32  93 CALM      30.07S
MANNING        FAIR      41  28  60 MISG      30.04F
COLUMBIA       CLEAR     37  34  89 CALM      30.05F
SUMTER         CLOUDY    38  33  80 CALM      30.03F
FLORENCE       CLOUDY    39  34  82 N7        30.06R WCI  34
MYRTLE BEACH   CLOUDY    46  43  89 N7        30.03F
N MYRTLE BEACH CLOUDY    46  43  89 N7        30.01F

$$

GAZ063-065-086>088-099>101-113>116-118-119-134>141-150-240600-
...SOUTHEAST GEORGIA...

CITY           SKY/WX    TMP DP  RH WIND       PRES   REMARKS
SAVANNAH ARPT  CLOUDY    47  44  90 N8        30.00F
HUNTER AAF     CLOUDY    48  44  88 CALM      29.96F
FORT STEWART   CLOUDY    47  43  85 N5        29.97F
STATESBORO     CLEAR     43  38  82 N3        30.01F
SYLVANIA       CLEAR     43  41  92 N3        30.03S
CLAXTON        FAIR      47  42  82 CALM      30.01F

...CSRA...CENTRAL AND FAR SOUTHEAST GEORGIA...

CITY           SKY/WX    TMP DP  RH WIND       PRES   REMARKS
THOMSON        CLEAR     35  34  96 CALM      30.09S
AUGUSTA-BUSH   CLEAR     37  36  96 CALM      30.04F
AUGUSTA-DANIEL CLEAR     46  37  71 E6        30.04F
SWAINSBORO     FAIR      45  39  81 NE6       30.02F
VIDALIA        CLEAR     46  43  87 N5        30.01F
EASTMAN        FAIR      48  37  65 CALM      30.04F
HAZLEHURST     CLOUDY    52  43  70 N6        29.99F
ALMA           MOCLDY    52  46  80 VRB5      29.99S
WAYCROSS       CLOUDY    52  49  90 N7        29.98F
JESUP          CLOUDY    52  45  76 CALM      29.98F
BAXLEY         FAIR      46  46 100 NE6       29.99F
BRUNSWICK      CLOUDY    50  46  87 N6        29.96F
SAINT SIMONS   CLOUDY    52  51  97 N10       29.95F

$$

SCZ027-028-034-036>038-045-046-048>050-GAZ119-141-240600-
...LAKE AND SUPPLEMENTAL COASTAL OBSERVATIONS...

STATION/POSITION TIME  TEMP    WIND        PRES    WAVE   SWELL
                       AIR SEA DIR/SP/G            HT/PER HT/PER/DIR
                 (UTC) (F)     (DEG/KT/KT) (MB)    (FT/S) (FT/S/D)
WINYAH BAY       0445   46     350/  6     1016.0F
LAKE MURRAY      0450   45      60/  1/  5 1016.9S
ACE BASIN NERRS  0445   46     360/  2     1016.0S
FORT PULASKI     0500   50 61   10/ 11/ 14 1015.4
SAPELO ISLAND    0500   52     360/ 11     1014.0

$$

ANZ835-935-AMZ111-154-330-350-352-354-370-450-454-472-240600-
...C-MAN AND BUOY OBSERVATIONS...

STATION/POSITION TIME  TEMP    WIND        PRES    WAVE   SWELL
                       AIR SEA DIR/SP/G            HT/PER HT/PER/DIR
                 (UTC) (F)     (DEG/KT/KT) (MB)    (FT/S) (FT/S/D)
BUOY 41004       0510   66 75   40/ 19/ 23 1013.1
BUOY 41008       0450   57 67   20/ 21/ 25 1013.0F   6/ 7   3/100/ 9
FOLLY BEACH CMAN 0500   49     360/ 11/ 14 1015.7F
CAPERS NEARSHORE 0508   49 61   10/ 16/ 21 1014.8F
FRIPP NEARSHORE  0508   50 62  360/ 14/ 25 1013.4F


STATION/POSITION TIME  TEMP    WIND        PRES    WAVE   SWELL
                       AIR SEA DIR/SP/G            HT/PER HT/PER/DIR
                 (UTC) (F)     (DEG/KT/KT) (MB)    (FT/S) (FT/S/D)
5E ST. MARYS GA  0500      67                N/A     7/ 6
FRYING PAN BUOY  0510   62 72   40/ 17/ 23 1014.2
BUOY 41025       0510   56 72   20/ 14/ 19 1016.9
CAPE LOOKOUT NC  0500           20/ 12/ 14 1017.1F
BUOY 41002       0450   70 77   70/ 16/ 19 1012.1R   9/11   7/110/11
BUOY 41010       NOT AVBL
ST AUGUSTINE FL  0500   64 68  360/ 29/ 31 1011.0F


$$




USA.gov is the U.S. government's official web portal to all federal, state and local government web resources and services.